Regional Weather Roundup
Issued by NWS

Home | Current Version | Previous Version | Graphics & Text | Print | Product List | Glossary Off
Versions: 1 2 3 4 5 6 7 8 9 10 11 12 13 14 15 16 17 18 19 20 21 22 23 24 25 26 27 28 29 30 31 32 33 34 35 36 37 38 39 40 41 42 43 44 45 46 47 48 49 50

000
ASUS43 KLSX 300759
RWRMO

WEATHER SUMMARY FOR MISSOURI
NATIONAL WEATHER SERVICE SPRINGFIELD MO
300 AM CDT THU JUL 30 2015

NOTE: "FAIR" INDICATES FEW OR NO CLOUDS BELOW 12,000 FEET WITH NO
       SIGNIFICANT WEATHER AND/OR OBSTRUCTIONS TO VISIBILITY.
       CURRENT SKY AND/OR WEATHER CONDITIONS ARE NOT AVAILABLE FOR
       CHILLICOTHE AND FARMINGTON.

MOZ001>031-035>038-043-044-053-054-300900-
...NORTHERN AND WESTERN MISSOURI...

CITY           SKY/WX    TMP DP  RH WIND       PRES   REMARKS
KANSAS CTY INT PTCLDY    71  63  75 CALM      30.17S
KANSAS C DTWN  CLEAR     70  66  87 CALM      30.17R
LEE`S SUMMIT   CLEAR     67  64  90 CALM      30.18S
ST JOSEPH        N/A     63  62  97 CALM      30.17S
CHILLICOTHE      N/A     65  63  93 CALM      30.17F
KIRKSVILLE     CLEAR     63  61  93 W3        30.17S

$$
MOZ066>068-077>081-088>096-101>105-300900-
...SOUTHWEST MISSOURI...

CITY           SKY/WX    TMP DP  RH WIND       PRES   REMARKS
SPRINGFIELD    MOCLDY    73  65  75 N3        30.16S
JOPLIN         CLOUDY    75  68  78 NE6       30.15S

$$
MOZ032>034-039>042-045>050-055>058-069>072-300900-
...CENTRAL MISSOURI...

CITY           SKY/WX    TMP DP  RH WIND       PRES   REMARKS
COLUMBIA       CLEAR     68  61  78 N6        30.16R
JEFFERSON CITY PTCLDY    66  63  90 NW3       30.15R
ROLLA          PTCLDY    65  62  90 CALM      30.14F
SEDALIA        CLEAR     67  62  84 CALM      30.18R
OSAGE BEACH    MOCLDY    66  63  88 CALM      30.16S

$$
MOZ051-052-059>065-300900-
...EAST CENTRAL MISSOURI...

CITY           SKY/WX    TMP DP  RH WIND       PRES   REMARKS
ST LOUIS INTL  PTCLDY    72  62  71 NW7       30.12F
SPIRIT OF STL  CLEAR     64  63  96 W3        30.12S
ST CHARLES     CLEAR     72  62  71 NW6       30.11F

$$
MOZ072>076-082>087-097>100-106>115-300900-
...SOUTH CENTRAL AND SOUTHEAST MISSOURI...

CITY           SKY/WX    TMP DP  RH WIND       PRES   REMARKS
CAPE GIRARDEAU NOT AVBL
FARMINGTON     CLEAR     66  61  82 N5        30.16S
POPLAR BLUFF   CLEAR     74  68  81 N7        30.07S
WEST PLAINS    CLEAR     70  64  81 NE5       30.15F

$$



USA.gov is the U.S. government's official web portal to all federal, state and local government web resources and services.